Orbital Elements at Epoch 2459200.5 (2020-Dec-17.0) TDB
Reference: JPL 21 (heliocentric ecliptic J2000)
Element | Value | Uncertainty (1-sigma) | Units |
e | .1665065488145201 | 3.4255e-08 | |
a | 2.57044720552597 | 1.4679e-08 | au |
q | 2.142450912423914 | 8.8104e-08 | au |
i | 5.635388878922887 | 5.1248e-06 | deg |
node | 115.1715211405901 | 4.1275e-05 | deg |
peri | 93.30150520882195 | 4.6417e-05 | deg |
M | 179.6896235309014 | 2.4529e-05 | deg |
tp | 2458449.167877030662 (2018-Nov-26.66787703) | 9.7873e-05 | TDB |
period | 1505.259786035709 4.12 | 1.2894e-05 3.53e-08 | d yr |
n | .2391613748933699 | 2.0486e-09 | deg/d |
Q | 2.998443498628027 | 1.7123e-08 | au |
|
| | Orbit Determination Parameters
Additional Information
|